Regional Weather Roundup
Issued by NWS

Home | Current Version | Previous Version | Graphics & Text | Print | Product List | Glossary On
Versions: 1 2 3 4 5 6 7 8 9 10 11 12 13 14 15 16 17 18 19 20 21 22 23 24 25 26 27 28 29 30 31 32 33 34 35 36 37 38 39 40 41 42 43 44 45 46 47 48 49 50
000
ASUS43 KDMX 241801
RWRIA

WEATHER ROUNDUP FOR IOWA
NATIONAL WEATHER SERVICE DES MOINES IA
1200 PM CST FRI FEB 24 2017

NOTE: "FAIR" INDICATES FEW OR NO CLOUDS BELOW 12,000 FEET WITH NO
SIGNIFICANT WEATHER AND/OR OBSTRUCTIONS TO VISIBILITY.

* - THESE STATIONS ARE NOT NWS STATIONS...THUS NOT UNDER NWS
QUALITY CONTROL.  THEY ALSO DO NOT REPORT WEATHER SUCH
AS PRECIPITATION OR FOG.

IAZ001>003-012>014-020>022-031>034-043>046-241900-
   NORTHWEST IOWA

CITY           SKY/WX    TMP DP  RH WIND       PRES   REMARKS
CARROLL *      MIX PCPN  25  25 100 N29G38    29.75S VSB 1/2 WCI   8
CHEROKEE *     CLOUDY    23  20  88 N25G31    29.84R WCI   7
DENISON *      HVY RAIN  23  21  93 N20G30    29.76S VSB 1/4 WCI   8
LE MARS *      MIX PCPN  23  19  86 N17G23    29.90R WCI   9
SHELDON *      CLOUDY    23  23 100 N26G36    29.85R FOG     WCI   6
SIOUX CITY     HAZE      24  19  81 N25G32    29.88R VSB 3/4 WCI   8
6HR MIN TEMP:  25; 6HR MAX TEMP:  27;

SPENCER        FOG       23  19  85 N22       29.83R VSB 3/4 WCI   8
6HR MIN TEMP:  22; 6HR MAX TEMP:  25;

STORM LAKE *   SNOW      21  19  93 N23G41    29.77F VSB 1/2 WCI   5
$$

IAZ055>058-069>071-079>083-090>094-241900-
   SOUTHWEST IOWA

CITY           SKY/WX    TMP DP  RH WIND       PRES   REMARKS
ATLANTIC *     LGT RAIN  27  23  86 N22G35    29.76R WCI  12
CLARINDA *     CLOUDY    28  27  93 N22G28    29.76R WCI  15
COUNCIL BLFS * LGT SNOW  25  25 100 N15G25    29.79R WCI  12
CRESTON *      CLOUDY    27  27 100 N22G33    29.70R WCI  12
HARLAN  *      LGT SNOW  25  25 100 N21G30    29.80R WCI  10
LAMONI         CLOUDY    33  30  88 N14G25    29.65R WCI  23
6HR MIN TEMP:  33; 6HR MAX TEMP:  36; 6HR PCP:  0.01;

RED OAK *      MIX PCPN  27  25  93 N25G36    29.76F WCI  11
SHENANDOAH *   LGT SNOW  28  25  86 N18       29.78S WCI  16
$$

IAZ047>049-059>061-072>074-084-241900-
   CENTRAL IOWA

CITY           SKY/WX    TMP DP  RH WIND       PRES   REMARKS
AMES           FRZ RAIN  29  29 100 N24G31    29.69R FOG     WCI  15
6HR MIN TEMP:  29; 6HR MAX TEMP:  32; 6HR PCP:  0.01;

ANKENY *       PTSUNNY   30  28  93 N20G28    29.68S FOG     WCI  18
BOONE *        MIX PCPN  25  25 100 N20G28    29.68S WCI  11
CHARITON *     FLURRIES  34  32  93 N20       29.62S WCI  22
DES MOINES     FRZ DRZL  32  29  88 N18G31    29.67S FOG     WCI  20
6HR MIN TEMP:  32; 6HR MAX TEMP:  35; 6HR PCP:  0.05;

GRINNELL*      LGT RAIN  32  31  97 N16G23    29.62S WCI  21
KNOXVILLE *    LGT SNOW  34  32  93 N12G23    29.61S WCI  25
MARSHALLTOWN   FRZ RAIN  31  30  96 N21       29.63S FOG     WCI  18
6HR MIN TEMP:  31; 6HR MAX TEMP:  32; 6HR PCP: TRACE;

NEWTON *       PTSUNNY   32  32 100 N17       29.62S FOG     WCI  21
PELLA *        CLOUDY    34  32  94 N13G18    29.64R WCI  25
PERRY *        MIX PCPN  27  25  93 N22G32    29.72S WCI  12
$$

IAZ004>006-015-016-023>025-035-036-241900-
   NORTH CENTRAL IOWA

CITY           SKY/WX    TMP DP  RH WIND       PRES   REMARKS
ALGONA *       FOG       23  23 100 N26G38    29.75S VSB<1/4 WCI   6
CLARION *      FOG       23  25 100 N24G32    29.71S VSB 1/4 WCI   7
ESTHERVILLE    FOG       21  20  96 N22G35    29.80S VSB 1/2 WCI   5
6HR MIN TEMP:  20; 6HR MAX TEMP:  23;

FORT DODGE *   CLOUDY    25  18  74 N15G24    29.74S WCI  12
MASON CITY     LGT SNOW  24  24 100 N25G32    29.70F FOG     WCI   8
6HR MIN TEMP:  24; 6HR MAX TEMP:  28; 6HR PCP: TRACE;

FOREST CITY *  SNOW      27  23  86 N23       29.71F VSB 1/2 WCI  12
WEBSTER CITY * LGT RAIN  25  21  86 N30G39    29.69R VSB 1/2 WCI   8
IOWA FALLS *   CLOUDY    30  27  86 N20       29.67S FOG     WCI  18
$$

IAZ007>011-017>019-026>030-037>042-050>054-066-241900-
   NORTHEAST IOWA

CITY           SKY/WX    TMP DP  RH WIND       PRES   REMARKS
CEDAR RAPIDS   CLOUDY    33  32  96 N16       29.56R FOG     WCI  23
6HR MIN TEMP:  32; 6HR MAX TEMP:  34; 6HR PCP: TRACE;

CHARLES CITY * LGT RAIN  30  28  93 N21       29.66R WCI  17
CLINTON *      MIX PCPN  36  35  96 NE16      29.51F FOG     WCI  26
DECORAH *      SUNNY     28  27  93 N16G25    29.61F FOG     WCI  17
DUBUQUE        CLOUDY    31  31 100 NE16      29.52S FOG     WCI  20
6HR MIN TEMP:  31; 6HR MAX TEMP:  32; 6HR PCP:  0.03;

MONTICELLO *   PTSUNNY   32  30  93 NE12G20   29.55S FOG     WCI  23
OELWEIN *      MOSUNNY   30  30 100 NE25G32   29.60R WCI  16
WATERLOO       MIX PCPN  31  29  92 N15       29.63R FOG     WCI  20
6HR MIN TEMP:  31; 6HR MAX TEMP:  33; 6HR PCP:  0.01;

$$

IAZ064-065-067-068-078-241900-
   EAST CENTRAL IOWA

CITY           SKY/WX    TMP DP  RH WIND       PRES   REMARKS
DAVENPORT      CLOUDY    38  35  89 NE13      29.52R WCI  30
6HR MIN TEMP:  37; 6HR MAX TEMP:  38; 6HR PCP: TRACE;

IOWA CITY      CLOUDY    36  33  89 N13       29.57R FOG     WCI  27
6HR MIN TEMP:  36; 6HR MAX TEMP:  37; 6HR PCP: TRACE;

MUSCATINE *    PTSUNNY   39  36  87 N10       29.55R FOG     WCI  32
QUAD CITIES    CLOUDY    41  36  82 N8        29.50R HAZE
6HR MIN TEMP:  41; 6HR MAX TEMP:  42;

$$

IAZ062-063-075>077-085>089-095>099-241900-
   SOUTHEAST IOWA

CITY           SKY/WX    TMP DP  RH WIND       PRES   REMARKS
BURLINGTON     CLOUDY    40  38  93 NW12      29.54R WCI  33
6HR MIN TEMP:  40; 6HR MAX TEMP:  42;

FAIRFIELD *      N/A     37  34  87 NW14      29.57S WCI  29
KEOKUK *       CLOUDY    41  39  93 W13       29.56R
CENTERVILLE *  PTSUNNY   37  37 100 NW17      29.62R WCI  28
OTTUMWA        MIX PCPN  36  35  96 N17       29.59S FOG     WCI  26
6HR MIN TEMP:  36; 6HR MAX TEMP:  37; 6HR PCP: TRACE;

WASHINGTON *   MIX PCPN  36  36 100 N13       29.58R WCI  27
$$

ABBREVIATIONS USED IN REMARKS
   TC - TEMPERATURES IN CELSIUS
  WCI - WIND CHILL INDEX
   HX - HEAT INDEX
  VSB - VISIBILITY
$$





USA.gov is the U.S. government's official web portal to all federal, state and local government web resources and services.